Location: Neuvy Saint Sepulchre
(46.5953°N, 1.8122°E)
Time: 06:50:59
(UTC+01:00)

ISS - Pass Details

Date: 29 November 2023
Orbit: 416 x 417 km, 51.6° (Epoch: 01 December)

Event Time Altitude Azimuth Distance (km) Brightness Sun altitude
Rises 19:50:45 0° 296° (WNW) 2,362 1.0 -27.3°
Reaches altitude 10° 19:52:51 10° 295° (WNW) 1,497 -0.2 -27.6°
Enters shadow 19:53:55 19° 294° (WNW) 1,073 -1.1 -27.8°
